Flag for U.S.A. Weather past 2 weeks in Paterson, New Jersey, U.S.A.

Now
27 °F

Clear.


Feels Like: 27 °F
Forecast: 8 / 27 °F
Wind: No wind

Location: Essex County Airport

Current Time: Feb 28, 2015 at 6:17:47 PM

Latest Report: Feb 28, 2015 at 5:53 PM


Visibility: 10 mi

Pressure: 30.75 "Hg

Humidity: 28%

Dew point: -2 °F

Location of PatersonLocation

Historic Weather in Paterson — Graph

°F

Paterson temperature yesterday

Maximum temperature yesterday: 28 °F (at 2:53 PM)
Minimum temperature yesterday: 13 °F (at 2:53 AM)
Average temperature yesterday: 20 °F

Past Weeks' High & Low Weather Summary

 TemperatureHumidityPressure
High44 °F (Feb 22, 2:53 PM)96% (Feb 14, 5:53 PM)30.85 "Hg (Feb 14, 5:53 PM)
Low-3 °F (Feb 24, 4:53 AM)24% (Feb 16, 12:53 PM)29.49 "Hg (Feb 14, 11:53 PM)
Average17 °F55%30.13 "Hg
* Reported Feb 13 4:53 PM — Feb 28 4:53 PM, Paterson, Weather by CustomWeather, © 2015

Note: Actual official high and low records may vary slightly from our data, if they occured in-between our weather recording intervals... More about our weather records

Advertising

Paterson weather history for previous 24 hours

 ConditionsComfort  
Time TempWeatherWind HumidityBarometerVisibility
4:53 PM
Sat, Feb 28
30 °FSunny.No wind25%30.76 "Hg10 mi
3:53 PM28 °FSunny.No wind28%30.76 "Hg10 mi
2:53 PM29 °FSunny.No wind28%30.77 "Hg10 mi
1:53 PM25 °FSunny.No wind33%30.78 "Hg10 mi
12:53 PM23 °FSunny.5 mph36%30.81 "Hg10 mi
11:53 AM21 °FSunny.5 mph40%30.84 "Hg10 mi
10:53 AM17 °FSunny.5 mph45%30.85 "Hg10 mi
9:53 AM16 °FSunny.No wind43%30.85 "Hg10 mi
8:53 AM15 °FSunny.5 mph42%30.85 "Hg10 mi
7:53 AM11 °FSunny.5 mph51%30.84 "Hg10 mi
6:53 AM6 °FSunny.No wind57%30.81 "Hg10 mi
5:53 AM9 °FClear.5 mph50%30.78 "Hg10 mi
4:53 AM9 °FClear.3 mph47%30.75 "Hg10 mi
3:53 AM10 °FClear.No wind45%30.72 "Hg10 mi
2:53 AM13 °FClear.No wind42%30.70 "Hg10 mi
1:53 AM14 °FClear.5 mph42%30.68 "Hg10 mi
12:53 AM15 °FClear.3 mph40%30.68 "Hg10 mi
11:53 PM
Fri, Feb 27
15 °FClear.No wind44%30.65 "Hg10 mi
10:53 PM18 °FClear.3 mph39%30.64 "Hg10 mi
9:53 PM19 °FClear.3 mph38%30.61 "Hg10 mi
8:53 PM20 °FClear.3 mph40%30.58 "Hg10 mi
7:53 PM22 °FClear.5 mph38%30.55 "Hg10 mi
6:53 PM24 °FClear.7 mph36%30.52 "Hg10 mi
Weather by CustomWeather, © 2015

See weather overviewHow to use our weather pages